Hof Plauen, Germany

3:47 AM CEST on March 26, 2017 (GMT +0200)
Hof-Plauen

Weather History for EDQM - December, 2013

Change the Weather History Date:

Wednesday, December 18, 2013

  Actual Average Record
Temperature  
Mean Temperature 30 °F -  
Max Temperature 33 °F 31 °F 50 °F (2014)
Min Temperature 28 °F 25 °F 10 °F (2010)
Degree Days  
Heating Degree Days 34    
Moisture  
Dew Point 26 °F    
Average Humidity 79    
Maximum Humidity 87    
Minimum Humidity 70    
Precipitation  
Precipitation 0.00 in - - ()
Sea Level Pressure  
Sea Level Pressure 30.20 in    
Wind  
Wind Speed 4 mph ()    
Max Wind Speed 11 mph    
Max Gust Speed 16 mph    
Visibility 7.3 miles    
Events      
Averages and records for this station are not official NWS values.
T = Trace of Precipitation, MM = Missing Value Source: Averaged Metar Reports

Daily Weather History Graph

Daily Weather History Graph

Search for Another Location

Airport or City:

Trip Planner

Search our weather history database for the weather conditions in past years. The results will help you decide how hot, cold, wet, or windy it might be!

Date:

Astronomy

Dec. 18, 2013 Rise Set
Actual Time 8:08 AM CET 4:10 PM CET
Civil Twilight 7:29 AM CET 4:48 PM CET
Nautical Twilight 6:47 AM CET 5:30 PM CET
Astronomical Twilight 6:07 AM CET 6:10 PM CET
Moon 5:35 PM CET (12/18) 8:28 AM CET (12/18)
Length of Visible Light 9h 19m
Length of Day
8h 01m
Full, 99% of the Moon is Illuminated
Dec 18
Full
Dec 25
Last Quarter
Jan 1
New
Jan 8
First Quarter
Jan 16
Full

Hourly Weather History & Observations

Time (CET) Temp. Windchill Dew Point Humidity Pressure Visibility Wind Dir Wind Speed Gust Speed Precip Events Conditions
12:00 AM 30 °F - 27 °F 83% 30.35 in 11 mi SE 4.5 mph - -   Overcast
12:20 AM 30.2 °F 26.7 °F 23.0 °F 75% 30.27 in 6.2 mi South 3.5 mph - N/A   Unknown
12:50 AM 32.0 °F 27.5 °F 24.8 °F 75% 30.24 in 6.2 mi South 4.6 mph - N/A   Unknown
1:00 AM 30 °F - 26 °F 81% 30.34 in 9 mi SSE 4.5 mph - -   Overcast
1:20 AM 30.2 °F 25.4 °F 23.0 °F 75% 30.24 in 6.2 mi South 4.6 mph - N/A   Unknown
1:50 AM 30.2 °F 25.4 °F 23.0 °F 75% 30.24 in 6.2 mi South 4.6 mph - N/A   Unknown
2:00 AM 29 °F - 25 °F 79% 30.33 in 11 mi ESE 2.2 mph - -   Overcast
2:20 AM 30.2 °F 25.4 °F 24.8 °F 80% 30.24 in 6.2 mi South 4.6 mph - N/A   Unknown
2:50 AM 28.4 °F - 24.8 °F 86% 30.24 in 6.2 mi South 2.3 mph - N/A   Unknown
3:00 AM 31 °F - 25 °F 72% 30.32 in 14 mi South 6.7 mph - -   Overcast
3:20 AM 28.4 °F 24.6 °F 23.0 °F 80% 30.24 in 6.2 mi SSW 3.5 mph - N/A   Unknown
3:50 AM 30.2 °F - 24.8 °F 80% 30.21 in 6.2 mi Variable 2.3 mph - N/A   Unknown
4:20 AM 28.4 °F 24.6 °F 23.0 °F 80% 30.21 in 6.2 mi South 3.5 mph - N/A   Unknown
4:50 AM 28.4 °F 24.6 °F 23.0 °F 80% 30.21 in 6.2 mi South 3.5 mph - N/A   Unknown
5:00 AM 30 °F - 26 °F 78% 30.30 in 9 mi South 6.7 mph - -   Overcast
5:20 AM 28.4 °F 24.6 °F 24.8 °F 86% 30.21 in 6.2 mi South 3.5 mph - N/A   Unknown
5:50 AM 28.4 °F 24.6 °F 24.8 °F 86% 30.21 in 6.2 mi South 3.5 mph - N/A   Unknown
6:00 AM 31 °F - 25 °F 72% 30.29 in 12 mi South 6.7 mph - -   Overcast
6:20 AM 30.2 °F 25.4 °F 23.0 °F 75% 30.21 in 6.2 mi South 4.6 mph - N/A   Unknown
6:50 AM 30.2 °F 24.3 °F 23.0 °F 75% 30.21 in - SSW 5.8 mph - N/A   Clear
7:00 AM 29 °F - 25 °F 79% 30.30 in 12 mi SE 2.2 mph - -   Clear
7:20 AM 28.4 °F 24.6 °F 23.0 °F 80% 30.21 in - SE 3.5 mph - N/A   Clear
7:50 AM 28.4 °F - 23.0 °F 80% 30.21 in - Variable 2.3 mph - N/A   Clear
8:00 AM 29 °F - 24 °F 76% 30.32 in 25 mi SSE 4.5 mph - -   Mostly Cloudy
8:20 AM 28.4 °F - 23.0 °F 80% 30.21 in - Variable 2.3 mph 16.1 mph N/A   Clear
8:50 AM 28.4 °F 23.3 °F 23.0 °F 80% 30.21 in - East 4.6 mph - N/A   Clear
9:00 AM 29 °F - 25 °F 77% 30.32 in 22 mi SE 4.5 mph - -   Mostly Cloudy
9:20 AM 30.2 °F - 24.8 °F 80% 30.21 in - Variable 2.3 mph - N/A   Clear
10:20 AM 32.0 °F 28.7 °F 24.8 °F 75% 30.24 in - SE 3.5 mph - N/A   Clear
10:50 AM 30.2 °F 26.7 °F 24.8 °F 80% 30.21 in - East 3.5 mph - N/A   Clear
11:00 AM 30 °F - 26 °F 78% 30.31 in 19 mi SSE 6.7 mph - -   Mostly Cloudy
11:20 AM 32.0 °F 28.7 °F 26.6 °F 80% 30.21 in - East 3.5 mph - N/A   Clear
11:50 AM 32.0 °F - 26.6 °F 80% 30.21 in - Variable 2.3 mph - N/A   Clear
12:00 PM 30 °F - 26 °F 78% 30.30 in 19 mi South 8.9 mph - -   Mostly Cloudy
12:20 PM 32.0 °F - 26.6 °F 80% 30.21 in - Variable 2.3 mph - N/A   Clear
12:50 PM 35.6 °F 29.9 °F 28.4 °F 75% 30.18 in - South 6.9 mph - N/A   Clear
1:00 PM 32 °F - 27 °F 75% 30.27 in 16 mi SSE 6.7 mph - -   Mostly Cloudy
1:20 PM 35.6 °F 29.9 °F 26.6 °F 70% 30.18 in - South 6.9 mph - N/A   Clear
1:50 PM 33.8 °F 28.6 °F 26.6 °F 75% 30.15 in - ENE 5.8 mph - N/A   Clear
2:00 PM 33 °F - 28 °F 73% 30.24 in 12 mi ESE 4.5 mph - -   Mostly Cloudy
2:20 PM 32.0 °F 24.8 °F 26.6 °F 80% 30.15 in 5.6 mi East 8.1 mph - N/A   Overcast
2:50 PM 33.8 °F 29.6 °F 26.6 °F 75% 30.15 in 5.6 mi Variable 4.6 mph - N/A   Scattered Clouds
3:00 PM 33 °F - 28 °F 73% 30.24 in 12 mi SSE 6.7 mph - -   Mostly Cloudy
3:20 PM 33.8 °F - 26.6 °F 75% 30.15 in 5.6 mi Variable 2.3 mph - N/A   Mostly Cloudy
3:50 PM 32.0 °F 28.7 °F 26.6 °F 80% 30.15 in 5.0 mi ESE 3.5 mph - N/A   Mostly Cloudy
4:20 PM 32.0 °F 28.7 °F 28.4 °F 87% 30.15 in 5.0 mi SSE 3.5 mph - N/A   Mostly Cloudy
4:50 PM 32.0 °F 27.5 °F 28.4 °F 87% 30.15 in 5.0 mi SE 4.6 mph - N/A   Mostly Cloudy
5:00 PM 31 °F - 28 °F 84% 30.24 in 10 mi SSE 8.9 mph - -   Mostly Cloudy
5:20 PM 32.0 °F 27.5 °F 26.6 °F 80% 30.15 in 4.3 mi SSE 4.6 mph - N/A   Scattered Clouds
5:50 PM 32.0 °F 28.7 °F 26.6 °F 80% 30.15 in 4.3 mi SSE 3.5 mph - N/A   Mostly Cloudy
6:00 PM 31 °F - 28 °F 83% 30.22 in 4 mi SSE 6.7 mph - -   Mist
6:20 PM 30.2 °F 26.7 °F 26.6 °F 86% 30.12 in 3.7 mi SSE 3.5 mph - N/A   Scattered Clouds
6:50 PM 30.2 °F 24.3 °F 26.6 °F 86% 30.12 in 4.3 mi ESE 5.8 mph - N/A   Partly Cloudy
7:00 PM 31 °F - 28 °F 81% 30.20 in 4 mi SSE 11.2 mph - -   Mist
7:20 PM 30.2 °F 26.7 °F 26.6 °F 86% 30.09 in 3.7 mi SE 3.5 mph - N/A   Overcast
7:50 PM 30.2 °F 22.6 °F 26.6 °F 86% 30.09 in 5.0 mi South 8.1 mph - N/A   Partly Cloudy
8:00 PM 30 °F - 27 °F 85% 30.18 in 4 mi SSE 8.9 mph - -   Mist
8:20 PM 32.0 °F 24.8 °F 24.8 °F 75% 30.09 in 6.2 mi SSE 8.1 mph - N/A   Mostly Cloudy
8:50 PM 32.0 °F 25.6 °F 24.8 °F 75% 30.06 in 6.2 mi SSE 6.9 mph - N/A   Overcast
9:00 PM 30 °F - 27 °F 83% 30.16 in 5 mi SSE 8.9 mph - -   Overcast
9:20 PM 32.0 °F 28.7 °F 24.8 °F 75% 30.06 in 6.2 mi South 3.5 mph - N/A   Overcast
9:50 PM 32.0 °F 26.4 °F 24.8 °F 75% 30.06 in 6.2 mi SE 5.8 mph - N/A   Overcast
10:20 PM 32.0 °F 26.4 °F 24.8 °F 75% 30.04 in 6.2 mi SE 5.8 mph - N/A   Overcast
10:50 PM 30.2 °F 23.4 °F 24.8 °F 80% 30.04 in 5.6 mi SE 6.9 mph - N/A   Mostly Cloudy
11:00 PM 29 °F - 26 °F 86% 30.11 in 4 mi SSE 8.9 mph - -   Mist
11:20 PM 32.0 °F 23.6 °F 24.8 °F 75% 30.01 in 6.2 mi SSE 10.4 mph - N/A   Mostly Cloudy
11:50 PM 32.0 °F 24.2 °F 24.8 °F 75% 30.01 in 6.2 mi SSE 9.2 mph - N/A   Partly Cloudy